EW2279 Weather Reports


time (UTC)temp
C
wind
direction
speed
KPH
gust
KPH
rain 1hr
cm
rain 24hr
cm
rain mn
cm
humidity
%
barometer
mb
20260503204256 20 135 1.6 4.8 0.00 0.00 0.00 33 1015.9
20260503203733 20 135 0.0 0.0 0.00 0.00 0.00 33 1015.9
20260503203204 -17 0.0 0.0 0.00 0.00 0.00 1015.9
20260503201505 -17 0.0 0.0 0.00 0.00 0.00 1016.3
20260503193803 -17 0.0 0.0 0.00 0.00 0.00 1016.6
20260503192633 17 135 4.8 9.7 0.00 0.00 0.00 35 1016.6
20260503192103 17 135 4.8 9.7 0.00 0.00 0.00 35 1016.6
20260503191603 17 135 4.8 4.8 0.00 0.00 0.00 36 1016.6
20260503190903 18 135 0.0 0.0 0.00 0.00 0.00 36 1016.6
20260503185904 -17 0.0 0.0 0.00 0.00 0.00 1017.0
20260503184331 17 135 4.8 4.8 0.00 0.00 0.00 37 1017.3
20260503183433 -17 0.0 0.0 0.00 0.00 0.00 1017.3
20260503182002 17 135 3.2 8.0 0.00 0.00 0.00 38 1017.3
20260503181500 17 135 8.0 8.0 0.00 0.00 0.00 38 1017.3
20260503180703 -17 0.0 0.0 0.00 0.00 0.00 1017.3
20260503174632 16 225 3.2 4.8 0.00 0.00 0.00 38 1017.8
20260503174133 -17 0.0 0.0 0.00 0.00 0.00 1017.8
20260503172502 16 135 0.0 1.6 0.00 0.00 0.00 40 1018.1
20260503171802 16 135 1.6 1.6 0.00 0.00 0.00 40 1018.1
20260503171333 -17 0.0 0.0 0.00 0.00 0.00 1018.1
20260503150729 -17 0.0 0.0 0.00 0.00 0.00 1019.2
20260503081324 2 135 0.0 0.0 0.00 0.00 0.00 88 1015.9
20260503080723 -17 0.0 0.0 0.00 0.00 0.00 1015.9
20260503071952 3 135 1.6 3.2 0.00 0.00 0.00 84 1015.5
20260503054853 3 135 0.0 0.0 0.00 0.00 0.00 80 1015.5
20260503054054 3 135 0.0 0.0 0.00 0.00 0.00 80 1015.5
20260503053553 3 135 0.0 0.0 0.00 0.00 0.00 80 1015.5
20260503053042 3 135 0.0 0.0 0.00 0.00 0.00 80 1015.5
20260503052523 -17 0.0 0.0 0.00 0.00 0.00 1015.5
20260503051050 3 135 0.0 0.0 0.00 0.00 0.00 78 1015.5
20260503045220 3 135 0.0 0.0 0.00 0.00 0.00 78 1015.5
20260503044721 4 135 0.0 0.0 0.00 0.00 0.00 78 1015.5
20260503044137 4 135 0.0 0.0 0.00 0.00 0.00 78 1015.5
20260503043620 5 135 0.0 0.0 0.00 0.00 0.00 77 1015.5
20260503042720 5 135 1.6 1.6 0.00 0.00 0.00 77 1015.5
20260503041820 -17 0.0 0.0 0.00 0.00 0.00 1015.5
20260503040609 5 135 0.0 0.0 0.00 0.00 0.00 75 1015.5
20260503040053 5 135 0.0 0.0 0.00 0.00 0.00 75 1015.2
20260503035821 -17 0.0 0.0 0.00 0.00 0.00 1015.2
20260503033949 -17 0.0 0.0 0.00 0.00 0.00 1015.2
20260503032534 5 135 0.0 1.6 0.00 0.00 0.00 74 1015.2
20260503032020 5 135 0.0 0.0 0.00 0.00 0.00 73 1015.2
20260503031418 5 135 0.0 0.0 0.00 0.00 0.00 73 1015.2
20260503030918 5 135 0.0 0.0 0.00 0.00 0.00 73 1014.7
20260503030422 -17 0.0 0.0 0.00 0.00 0.00 1015.2
20260503024020 -17 0.0 0.0 0.00 0.00 0.00 1014.7
20260503021949 -17 0.0 0.0 0.00 0.00 0.00 1014.7
20260503005918 -17 0.0 0.0 0.00 0.00 0.00 1014.1
20260503003847 9 135 0.0 0.0 0.00 0.00 0.00 51 1013.7
20260503001946 -17 0.0 0.0 0.00 0.00 0.00 1013.7
20260503000319 -17 0.0 0.0 0.00 0.00 0.00 1013.3
20260502232945 11 135 6.4 3.2 0.00 0.00 0.00 44 1013.0
20260502231918 11 135 8.0 12.9 0.00 0.00 0.00 44 1013.0
20260502231417 -17 0.0 0.0 0.00 0.00 0.00 1013.0
20260502225714 12 135 4.8 4.8 0.00 0.00 0.00 41 1013.0
20260502224818 -17 0.0 0.0 0.00 0.00 0.00 1012.6
20260502221937 13 247 1.6 1.6 0.00 0.00 0.00 40 1012.6
20260502221435 13 135 1.6 1.6 0.00 0.00 0.00 40 1012.3
20260502220934 13 135 0.0 3.2 0.00 0.00 0.00 39 1012.3
20260502220417 14 135 1.6 4.8 0.00 0.00 0.00 39 1012.3
20260502215916 14 135 3.2 4.8 0.00 0.00 0.00 38 1012.3
20260502215414 15 135 4.8 4.8 0.00 0.00 0.00 37 1012.3
20260502213945 -17 0.0 0.0 0.00 0.00 0.00 1011.8
20260502212143 -17 0.0 0.0 0.00 0.00 0.00 1011.8
20260502210313 -17 0.0 0.0 0.00 0.00 0.00 1011.5